VK5KX Weather Reports


time (UTC)temp
F
wind
direction
speed
knots
gust
knots
rain 1hr
in
rain 24hr
in
rain mn
in
humidity
%
barometer
mb
20260510060031 65 191 0.0 0.0 0.00 0.01 0.00 64 1028.6
20260510054517 65 191 0.0 2.6 0.00 0.01 0.00 63 1028.6
20260510053013 65 194 0.0 0.0 0.00 0.01 0.00 64 1028.6
20260510051512 65 194 0.0 0.0 0.00 0.01 0.00 63 1028.5
20260510050014 65 195 0.0 0.0 0.00 0.01 0.00 63 1028.6
20260510044509 66 195 0.9 2.6 0.00 0.01 0.00 62 1028.6
20260510043007 65 159 1.7 3.5 0.00 0.01 0.00 62 1028.7
20260510041504 65 270 0.0 1.7 0.00 0.01 0.00 63 1028.8
20260510040005 64 275 0.9 3.5 0.00 0.01 0.00 63 1028.8
20260510034501 64 212 0.9 3.5 0.00 0.01 0.00 64 1029.1
20260510033105 64 324 0.0 0.0 0.00 0.01 0.00 65 1029.2
20260510031603 65 325 0.0 1.7 0.00 0.01 0.00 64 1029.3
20260510030100 64 316 0.0 3.5 0.00 0.01 0.00 65 1029.4
20260510024554 64 54 0.0 0.0 0.00 0.01 0.00 64 1029.6
20260510023053 64 35 0.0 2.6 0.00 0.01 0.00 66 1030.0
20260510021641 63 270 0.0 2.6 0.00 0.01 0.00 66 1030.2
20260510020050 63 265 0.0 0.0 0.00 0.01 0.00 66 1030.3
20260510014556 63 250 0.0 0.9 0.00 0.01 0.00 68 1030.5
20260510013058 63 344 0.0 2.6 0.00 0.01 0.00 67 1030.6
20260510011545 62 314 0.0 0.0 0.00 0.01 0.00 71 1030.6
20260510010049 61 288 0.0 0.0 0.00 0.01 0.00 73 1030.6
20260510004537 61 319 0.0 1.7 0.00 0.01 0.00 77 1030.8
20260510003033 60 17 0.9 2.6 0.00 0.01 0.00 82 1030.7
20260510001533 59 19 0.9 3.5 0.00 0.01 0.00 86 1030.8
20260510000026 57 45 0.0 2.6 0.00 0.01 0.00 91 1030.8
20260509234523 56 21 0.9 5.2 0.00 0.01 0.00 94 1030.9
20260509233020 55 48 0.0 0.0 0.00 0.01 0.00 95 1030.9
20260509231518 55 48 0.0 0.0 0.00 0.01 0.00 95 1030.8
20260509230024 54 48 0.0 0.0 0.00 0.01 0.00 95 1030.7
20260509224517 53 48 0.0 0.0 0.00 0.01 0.00 95 1030.6
20260509223010 53 48 0.0 0.0 0.00 0.01 0.00 95 1030.5
20260509221508 52 48 0.0 0.0 0.00 0.01 0.00 95 1030.3
20260509220006 51 48 0.0 0.0 0.00 0.01 0.00 95 1030.1
20260509214504 51 48 0.0 0.0 0.00 0.01 0.00 95 1029.9
20260509213002 51 48 0.0 0.0 0.00 0.01 0.00 94 1029.7
20260509211502 51 48 0.0 0.0 0.00 0.01 0.00 94 1029.7
20260509210000 50 48 0.0 0.0 0.00 0.01 0.00 95 1029.7
20260509204600 50 48 0.0 0.0 0.00 0.01 0.00 95 1029.5
20260509203100 49 48 0.0 0.0 0.00 0.01 0.00 94 1029.4
20260509201604 49 48 0.0 0.0 0.00 0.01 0.00 94 1029.2
20260509200056 49 48 0.0 0.0 0.00 0.01 0.00 94 1029.0
20260509194559 49 48 0.0 0.0 0.00 0.01 0.00 94 1028.9
20260509193054 49 48 0.0 0.0 0.00 0.01 0.00 94 1028.9
20260509191605 49 48 0.0 0.0 0.00 0.01 0.00 93 1028.8
20260509190050 49 48 0.0 0.0 0.00 0.01 0.00 93 1028.7
20260509184555 49 48 0.0 0.0 0.00 0.01 0.00 94 1028.6
20260509183054 50 48 0.0 0.0 0.00 0.01 0.00 93 1028.4
20260509181551 50 48 0.0 0.0 0.00 0.01 0.00 93 1028.4
20260509180053 50 48 0.0 0.0 0.00 0.01 0.00 93 1028.4
20260509174546 51 48 0.0 0.0 0.00 0.01 0.00 93 1028.3
20260509173055 51 48 0.0 0.0 0.00 0.01 0.00 93 1028.3
20260509171542 52 48 0.0 0.0 0.00 0.01 0.00 94 1028.4
20260509170038 51 48 0.0 0.0 0.00 0.01 0.00 93 1028.4
20260509164537 51 48 0.0 0.0 0.00 0.01 0.00 93 1028.5
20260509163036 50 48 0.0 0.0 0.00 0.01 0.00 93 1028.5
20260509161537 50 48 0.0 0.0 0.00 0.01 0.00 93 1028.7
20260509160036 50 38 0.0 0.0 0.00 0.01 0.00 92 1028.8
20260509154530 50 38 0.0 0.0 0.00 0.01 0.00 92 1028.8
20260509153047 50 38 0.0 0.0 0.00 0.01 0.00 92 1028.9
20260509151527 51 38 0.0 0.0 0.00 0.01 0.00 92 1029.0
20260509150025 51 38 0.0 0.0 0.00 0.01 0.00 91 1029.0
20260509144524 51 38 0.0 0.0 0.00 0.01 0.00 92 1029.0
20260509143021 51 38 0.0 0.0 0.00 0.01 0.00 91 1029.1
20260509141530 52 38 0.0 0.0 0.00 0.01 0.01 91 1029.1
20260509140022 52 38 0.0 0.0 0.00 0.01 0.01 91 1029.1
20260509134521 53 38 0.0 0.0 0.00 0.01 0.01 91 1029.1
20260509133022 53 38 0.0 0.0 0.01 0.01 0.01 90 1029.0
20260509131522 53 38 0.0 0.0 0.01 0.01 0.01 90 1029.1
20260509130021 53 38 0.0 0.0 0.01 0.01 0.01 90 1029.2
20260509124518 54 38 0.0 0.0 0.01 0.01 0.01 90 1029.2
20260509123018 54 38 0.0 0.0 0.00 0.00 0.00 90 1029.2
20260509121517 54 38 0.0 0.0 0.00 0.00 0.00 89 1029.2
20260509120018 55 38 0.0 0.0 0.00 0.00 0.00 89 1029.0
20260509114517 55 38 0.0 2.6 0.00 0.00 0.00 90 1028.9
20260509113017 55 28 0.0 6.1 0.00 0.00 0.00 91 1028.8
20260509111516 54 107 0.0 0.0 0.00 0.00 0.00 90 1028.9
20260509110015 55 107 0.0 0.0 0.00 0.00 0.00 90 1029.0
20260509104515 55 107 0.0 0.0 0.00 0.00 0.00 89 1029.0
20260509103014 55 107 0.0 0.0 0.00 0.00 0.00 89 1029.0
20260509101515 56 107 0.0 0.0 0.00 0.00 0.00 89 1029.0
20260509100014 57 107 0.0 0.0 0.00 0.00 0.00 88 1028.9
20260509094516 57 107 0.0 0.0 0.00 0.00 0.00 88 1028.9
20260509093013 58 107 0.0 0.0 0.00 0.00 0.00 88 1028.7
20260509091512 59 107 0.0 0.9 0.00 0.00 0.00 87 1028.8
20260509090016 60 129 0.0 0.9 0.00 0.00 0.00 86 1028.7
20260509084512 61 129 0.0 0.9 0.00 0.00 0.00 86 1028.6
20260509083011 61 129 0.0 2.6 0.00 0.00 0.00 85 1028.5
20260509081512 62 129 0.0 2.6 0.00 0.00 0.00 84 1028.3
20260509080010 62 129 0.0 1.7 0.00 0.00 0.00 84 1028.2
20260509074511 63 129 0.9 3.5 0.00 0.00 0.00 83 1028.2
20260509073024 63 133 0.9 3.5 0.00 0.00 0.00 83 1028.2
20260509071509 63 129 1.7 7.0 0.00 0.00 0.00 81 1028.1
20260509070009 63 148 1.7 3.5 0.00 0.00 0.00 81 1028.1
20260509064508 63 132 0.9 3.5 0.00 0.00 0.00 80 1028.0
20260509063016 64 144 0.9 3.5 0.00 0.00 0.00 79 1028.1
20260509061505 64 160 0.0 4.3 0.00 0.00 0.00 78 1028.1